This demonstration page uses our WeatherBlox Daily Observations layout. Learn more.

Left ArrowRight Arrow

38.83388, -104.82136

Hourly Observations for November 20, 2019

Temp ( °F °C ) Dew Point ( °F °C ) Humidity (%) Winds ( mph kmh ) Pressure ( in mb ) Visibility ( mi km ) Precip ( " mm )
12:58 am 00:58 Mostly Cloudy 51 10.5 16 -8.7 25 25 WNW 3 6 29.25 991 10 16 0.00 0.00
1:58 am 01:58 Mostly Cloudy 52 11.1 21 -5.9 30 30 WNW 5 7 29.24 990 10 16 0.00 0.00
2:58 am 02:58 Cloudy 55 13 21 -6.3 26 26 ESE 5 7 29.20 989 10 16 0.00 0.00
3:58 am 03:58 Mostly Cloudy 52 10.9 23 -5.1 32 32 Calm 29.22 989 10 16 0.00 0.00
4:58 am 04:58 Mostly Cloudy 49 9.5 21 -6 33 33 Calm 29.24 990 10 16 0.00 0.00
5:58 am 05:58 Mostly Cloudy 51 10.7 24 -4.5 34 34 NNW 6 9 29.22 989 10 16 0.00 0.00
6:58 am 06:58 Mostly Cloudy 50 10.1 24 -4.2 37 37 WNW 6 9 29.25 991 10 16 0.00 0.00
7:58 am 07:58 Mostly Cloudy 54 12.2 20 -6.9 26 26 NNW 9 15 29.25 991 10 16 0.00 0.00
8:58 am 08:58 Mostly Cloudy 54 12.4 22 -5.8 28 28 WNW 7 11 29.27 991 10 16 0.00 0.00
9:58 am 09:58 Cloudy 51 10.7 23 -5 33 33 NNW 14 22 29.29 992 10 16 0.00 0.00
10:58 am 10:58 Mostly Cloudy 52 11.1 24 -4.3 34 34 N 15 24 29.25 991 10 16 0.00 0.00
11:58 am 11:58 Mostly Cloudy 49 9.7 23 -5.1 35 35 NNW 17 28 29.24 990 10 16 0.00 0.00
12:58 pm 12:58 Mostly Cloudy 48 8.7 25 -3.7 42 42 N 12 19 29.25 991 10 16 0.00 0.00
1:32 pm 13:32 Cloudy with Light Rain 46 8 27 -3 46 46 NNW 10 17 29.27 991 10 16 0.00 0.00
1:58 pm 13:58 Cloudy with Light Rain 45 7.3 29 -1.9 52 52 NNW 14 22 29.27 991 10 16 0.00 0.00
2:14 pm 14:14 Cloudy 45 7 30 -1 57 57 NW 14 22 29.25 991 10 16 0.00 0.00
2:16 pm 14:16 Cloudy with Light Showers 45 7 30 -1 57 57 WNW 14 22 29.25 991 10 16 0.00 0.00
2:58 pm 14:58 Cloudy with Showers 42 5.5 35 1.8 77 77 WNW 12 19 29.31 993 5 8 0.02 0.51
3:13 pm 15:13 Cloudy with Showers 41 5 36 2 81 81 WNW 14 22 29.33 993 10 16 0.00 0.00
3:33 pm 15:33 Cloudy 43 6 36 2 76 76 NW 10 17 29.34 994 10 16 0.00 0.00
3:58 pm 15:58 Cloudy 42 5.6 33 0.8 72 72 NW 12 19 29.34 993 10 16 0.03 0.76
4:58 pm 16:58 Cloudy 39 3.9 32 0.1 77 77 NNW 14 22 29.41 996 10 16 0.00 0.00
5:58 pm 17:58 Cloudy 36 2.2 32 -0.2 84 84 NNW 14 22 29.45 997 10 16 0.00 0.00
6:54 pm 18:54 Cloudy with Light Showers 36 2 30 -1 81 81 NNW 15 24 29.49 999 10 16 0.00 0.00
6:58 pm 18:58 Cloudy with Light Showers 35 1.4 31 -0.6 87 87 NNW 15 24 29.49 999 10 16 0.00 0.00
7:58 pm 19:58 Mostly Cloudy 33 0.4 31 -0.7 92 92 NNW 14 22 29.49 999 10 16 0.00 0.00
8:18 pm 20:18 Cloudy 32 0 30 -1 93 93 NNW 10 17 29.52 1000 10 16 0.00 0.00
8:48 pm 20:48 Cloudy 32 0 30 -1 93 93 NNW 8 13 29.54 1001 10 16 0.00 0.00
8:58 pm 20:58 Cloudy 32 0 30 -1.1 92 92 NNW 8 13 29.54 1001 10 16 0.00 0.00
9:18 pm 21:18 Cloudy 32 0 30 -1 93 93 N 9 15 29.54 1001 10 16 0.00 0.00
9:48 pm 21:48 Cloudy 30 -1 28 -2 93 93 NNW 10 17 29.56 1001 10 16 0.00 0.00
9:58 pm 21:58 Cloudy 31 -0.8 29 -1.8 93 93 NNW 13 20 29.56 1001 10 16 0.00 0.00
10:43 pm 22:43 Cloudy 30 -1 28 -2 93 93 N 5 7 29.58 1002 10 16 0.00 0.00
10:58 pm 22:58 Cloudy 30 -1.1 28 -2 94 94 NNW 3 6 29.60 1002 10 16 0.00 0.00
11:22 pm 23:22 Cloudy with Light Snow 30 -1 28 -2 93 93 N 7 11 29.60 1002 5 8 0.00 0.00
11:52 pm 23:52 Cloudy with Mist and Fog 30 -1 28 -2 93 93 NNW 9 15 29.61 1003 6 10 0.00 0.00
11:57 pm 23:57 Cloudy 30 -1 28 -2 93 93 NNW 9 15 29.61 1003 7 11 0.00 0.00
11:58 pm 23:58 Cloudy 29 -1.5 28 -2.2 95 95 NNW 9 15 29.61 1003 7 11 0.00 0.00

Powered by AerisWeather